Volver al catálogo

STARLINK-31676

ActivoComunicacionesVLEO
NORAD 59900·PAYLOAD·🇺🇸 United States

Lanzado May 28, 2024 desde Cape Canaveral Space Force Station

Loading…

Próximos Pases (próximas 24 horas)

TLE

ActualizadoSource: CelesTrak SupGP

Época: Sep 15, 2026, 02:03 UTC

1 59900C 24100R   26258.08590278  .00064190  00000+0  23247-2 0  2589
2 59900  43.0003 135.8745 0001464 274.4545  11.8013 15.27549801    11

Sigue STARLINK-31676 en tiempo real con AllMySat

Download on the App Store